Simultaneous Nadir Overpasses (SNOs) Predictions

Prediction of SNOs between GOES-17 and NOAA-19 Satellite Orbit:

Table of predicted SNOs for the next 14.0 days since TLE Epoch: 3/28/2025
Index Date Time (GOES-17) GOES-17 Lat,Lon NOAA-19 Lat,Lon Distance(km) Time Diff (sec)
1 03/29/2025 04:56:50 -0.03,-104.38 -1.03,-108.75 498.63 80
2 03/30/2025 04:44:16 -0.03,-104.39 -0.30,-105.70 149.66 80
3 03/31/2025 04:34:20 -0.03,-104.39 0.37,-102.64 199.31 80
4 04/02/2025 16:53:00 0.03,-104.43 0.66,-107.09 304.49 80
5 04/03/2025 16:37:45 0.02,-104.43 -0.04,-104.04 44.43 80
6 04/04/2025 16:25:09 0.02,-104.43 -0.75,-100.98 393.25 80
7 04/06/2025 04:56:31 -0.02,-104.39 -0.96,-108.52 470.80 80
8 04/07/2025 04:43:55 -0.02,-104.39 -0.27,-105.46 121.70 80
9 04/08/2025 04:34:00 -0.02,-104.40 0.44,-102.40 227.58 80
10 04/10/2025 16:52:36 0.01,-104.45 0.58,-106.84 273.36 80
11 04/11/2025 16:37:21 0.01,-104.46 -0.15,-103.79 76.50 80
